Temp
59 59 59 59 59 59 60 60 60 60 60 60 61 61 61 61 60 56 50 59 61 65 65 61 58 58 56 53 55 50 39 38 43 44 52 54 52 56 56 55 54 54 53 55 61
59 58 58 58 59 59 59 59 59 59 59 59 60 60 60 60 53 51 61 65 66 66 59 56 55 56 49 51 51 46 38 42 51 52 52 54 53 54 52 53 51 49 52 55 61
58 58 58 58 58 58 58 58 58 59 59 59 59 59 59 58 49 51 67 67 67 66 61 60 59 55 47 49 49 47 45 53 51 56 54 52 51 55 49 49 55 54 52 55 57
58 57 57 57 58 58 58 58 58 58 58 58 59 59 59 52 35 57 66 67 66 62 59 56 54 47 44 43 51 43 49 55 55 56 52 51 53 51 52 56 59 58 56 55 56
58 57 57 57 57 58 58 58 57 58 58 58 58 59 53 42 44 61 64 64 61 59 55 52 48 47 43 45 49 45 46 52 56 53 52 53 50 52 51 59 58 55 55 56 56
57 57 56 56 57 57 57 57 57 57 57 58 58 58 45 33 56 60 61 59 58 56 53 52 49 52 46 47 45 47 50 52 52 51 51 50 52 50 52 58 54 53 52 54 55
57 56 56 56 57 57 57 57 57 57 57 58 58 54 44 39 55 57 56 55 57 56 51 53 54 48 47 44 50 48 43 49 50 50 48 50 45 47 54 58 54 52 50 53 54
56 56 56 56 56 56 56 57 57 57 57 59 59 53 39 53 52 53 55 52 56 56 54 56 55 49 45 48 45 41 39 36 48 47 49 49 40 50 56 53 53 52 51 51 53
56 56 56 56 56 56 56 56 56 57 58 58 48 44 37 55 48 53 53 48 52 54 53 58 52 44 44 37 32 34 30 31 39 48 48 47 42 52 56 51 50 53 54 51 53
55 55 55 55 55 55 56 55 55 55 52 54 52 39 43 42 49 51 53 54 49 47 47 45 44 39 39 35 26 29 26 35 34 44 47 45 44 47 52 53 53 49 48 49 51
55 55 55 55 55 55 52 42 38 36 39 34 36 37 40 47 50 46 50 49 48 43 36 42 35 31 36 38 39 39 34 34 41 47 43 44 44 47 51 49 45 45 46 46 49
55 55 55 55 55 55 46 36 37 40 30 40 40 39 43 45 34 40 47 35 38 32 39 36 31 39 42 40 37 36 33 33 38 43 43 43 41 44 46 51 53 47 46 46 46
54 54 54 54 54 46 38 40 46 43 29 34 39 38 39 44 34 36 42 35 32 30 31 30 36 40 38 38 34 33 32 32 33 37 41 36 36 38 42 45 49 51 53 50 47
54 54 54 54 45 40 38 45 47 42 22 26 33 39 41 42 32 46 43 35 32 28 32 30 37 36 35 34 37 29 38 37 34 33 26 37 25 39 44 43 48 49 46 46 47
53 53 53 53 42 36 42 46 43 37 4 31 35 48 44 36 37 39 47 39 28 28 31 29 32 33 30 33 38 32 39 36 34 32 30 29 26 33 41 39 44 49 49 50 52
53 53 53 46 40 43 47 45 37 14 1 25 34 33 32 34 34 39 39 40 38 29 31 30 40 33 34 37 40 40 34 34 34 30 22 29 27 30 35 39 44 49 52 53 54
53 52 50 47 35 43 45 35 14 5 24 18 27 31 28 25 28 29 28 25 24 22 21 25 27 34 38 30 34 35 29 22 20 20 20 30 27 33 36 45 46 48 51 52 55
52 51 47 46 44 41 38 20 1 9 13 31 29 29 21 26 26 27 21 18 29 27 23 20 13 27 36 33 29 30 30 24 12 10 18 27 22 30 41 46 44 42 40 43 46
51 39 37 40 43 38 26 5 7 18 26 24 24 20 18 27 25 22 20 20 28 28 20 21 20 32 33 36 36 29 27 32 14 7 17 21 27 34 36 37 38 37 38 44 48
37 33 33 42 40 32 24 15 19 30 30 26 18 23 11 14 16 18 19 27 27 32 33 24 18 31 29 33 30 31 35 23 25 17 15 17 18 22 30 29 35 33 34 36 39
32 27 35 41 36 25 14 8 21 32 32 23 21 20 21 19 19 14 20 30 33 32 33 26 25 22 31 27 25 28 27 25 26 22 11 5 13 27 32 28 25 29 30 33 32
34 22 36 38 19 9 9 16 32 28 31 28 27 25 23 23 17 18 21 28 36 34 23 28 24 17 24 28 28 29 26 29 21 15 16 12 19 16 14 13 18 25 29 27 28
28 25 35 36 16 6 16 19 25 24 26 25 25 28 27 23 16 21 24 33 35 32 26 28 20 15 20 25 29 28 28 28 23 22 14 13 19 16 14 17 24 23 24 25 25
31 20 24 31 26 19 11 18 17 27 26 29 27 29 23 15 18 16 24 30 33 32 38 33 24 21 17 21 23 21 26 28 29 23 18 20 25 24 18 15 24 27 29 28 27
31 25 25 19 16 16 20 18 20 15 26 28 23 26 24 20 16 7 21 26 27 33 31 28 22 21 23 23 22 21 23 26 26 26 24 17 15 18 23 25 16 17 26 23 24
29 27 28 25 23 21 23 17 22 23 23 22 21 24 23 22 20 19 22 25 24 26 25 26 19 16 15 16 22 22 22 21 23 24 23 21 24 27 30 27 24 22 22 24 25
35 34 29 24 22 17 19 23 23 26 29 31 28 25 20 20 26 29 31 30 28 25 24 24 19 14 13 15 16 12 10 17 22 21 20 20 21 24 25 28 25 27 23 23 25
MSLP
1024.32 1024.11 1023.81 1023.13 1022.72 1022.23 1021.82 1021.44 1020.94 1020.46 1019.79 1019.28 1018.72 1018.25 1017.81 1017.16 1016.36 1015.66 1014.78 1013.42 1013.07 1012.88 1012.73 1012.86 1013.09 1013.06 1013.41 1013.55 1013.61 1013.64 1013.95 1013.41 1012.27 1011.13 1009.47 1008.83 1008.74 1008.12 1007.60 1007.80 1008.18 1008.52 1008.76 1009.01 1009.80
1024.51 1024.30 1023.93 1023.54 1023.10 1022.60 1022.08 1021.59 1021.15 1020.56 1019.87 1019.26 1018.71 1018.28 1017.86 1017.03 1016.18 1014.56 1012.74 1012.52 1012.45 1012.33 1012.54 1013.08 1012.72 1013.11 1013.45 1013.20 1013.04 1013.38 1012.74 1011.53 1009.99 1009.80 1009.15 1008.64 1008.70 1008.30 1008.22 1008.16 1008.51 1008.81 1009.20 1009.08 1009.87
1024.81 1024.45 1024.06 1023.66 1023.21 1022.61 1022.00 1021.34 1020.80 1020.21 1019.59 1018.98 1018.45 1018.05 1017.67 1017.07 1015.60 1012.49 1011.20 1011.71 1011.62 1011.30 1011.95 1012.31 1012.67 1012.89 1013.16 1012.85 1012.42 1011.94 1010.88 1010.13 1009.41 1008.84 1009.11 1008.76 1008.32 1008.29 1008.44 1008.47 1008.10 1008.36 1009.16 1009.55 1010.15
1024.85 1024.42 1023.97 1023.55 1023.01 1022.41 1021.82 1021.36 1020.64 1020.04 1019.37 1018.80 1018.41 1018.03 1017.57 1017.55 1015.69 1011.58 1011.26 1011.28 1011.22 1011.12 1011.65 1012.23 1012.48 1012.88 1012.71 1012.29 1011.77 1011.17 1010.28 1009.79 1008.81 1008.96 1008.86 1008.93 1008.18 1008.13 1008.32 1007.89 1007.64 1007.70 1008.37 1009.41 1009.94
1024.92 1024.49 1023.95 1023.46 1022.85 1022.23 1021.65 1021.07 1020.40 1019.77 1018.98 1018.45 1018.23 1018.02 1017.64 1016.75 1013.88 1012.00 1011.85 1011.50 1011.52 1011.55 1011.73 1011.98 1012.26 1012.30 1012.03 1011.40 1011.23 1010.62 1010.20 1009.45 1008.90 1008.80 1008.67 1008.79 1008.60 1008.20 1007.95 1007.71 1007.80 1008.17 1008.82 1009.12 1009.49
1024.93 1024.39 1024.02 1023.43 1022.73 1022.06 1021.53 1020.85 1020.13 1019.28 1018.53 1017.63 1017.60 1017.63 1017.81 1015.96 1012.53 1011.77 1011.57 1011.51 1011.59 1011.57 1011.44 1011.61 1011.63 1011.38 1011.29 1011.01 1010.75 1009.87 1009.74 1009.50 1009.15 1008.63 1008.70 1008.73 1008.31 1008.45 1007.56 1007.30 1007.88 1008.44 1008.73 1008.89 1009.14
1024.77 1024.32 1023.80 1023.11 1022.42 1021.92 1021.45 1020.71 1019.87 1019.05 1018.09 1017.21 1016.78 1016.99 1016.67 1012.84 1012.11 1011.58 1011.70 1011.64 1011.18 1011.17 1011.17 1010.90 1010.96 1011.28 1010.94 1010.94 1010.14 1009.76 1009.73 1009.26 1008.56 1008.47 1008.39 1008.55 1007.74 1007.02 1007.30 1007.02 1007.72 1008.10 1008.33 1008.49 1008.44
1024.69 1024.09 1023.50 1022.89 1022.17 1021.58 1020.99 1020.13 1019.35 1018.46 1017.34 1016.39 1015.82 1015.99 1014.46 1012.57 1012.33 1012.15 1011.38 1011.16 1011.02 1010.67 1010.54 1010.59 1010.54 1010.67 1010.88 1010.83 1010.49 1010.17 1009.64 1008.76 1007.85 1008.29 1007.94 1008.40 1005.49 1006.13 1006.57 1006.84 1006.94 1007.45 1007.53 1007.76 1007.74
1024.55 1024.01 1023.38 1022.76 1022.08 1021.28 1020.50 1019.54 1018.61 1017.57 1016.39 1015.49 1015.02 1015.20 1013.49 1012.08 1011.88 1011.23 1011.17 1011.00 1010.67 1010.25 1010.21 1010.30 1010.41 1010.36 1010.63 1011.05 1011.36 1010.07 1008.69 1008.10 1008.18 1007.59 1007.74 1007.39 1005.40 1005.82 1005.99 1006.38 1006.45 1006.68 1006.93 1006.78 1007.02
1024.39 1023.87 1023.29 1022.66 1021.94 1021.07 1020.14 1019.18 1018.08 1017.00 1016.36 1015.49 1015.01 1015.60 1013.24 1012.11 1011.55 1011.11 1011.00 1011.03 1010.80 1010.48 1010.43 1010.38 1010.19 1009.76 1010.09 1010.35 1008.98 1009.34 1009.27 1008.54 1007.56 1006.82 1006.86 1006.43 1004.80 1005.53 1005.31 1005.61 1005.68 1005.92 1006.34 1006.19 1006.22
1024.22 1023.68 1023.05 1022.32 1021.56 1020.66 1019.79 1019.07 1018.51 1017.82 1017.22 1018.08 1016.64 1015.69 1013.26 1012.10 1012.55 1011.32 1011.50 1010.89 1010.80 1010.30 1009.30 1009.00 1009.42 1008.38 1007.87 1007.96 1007.71 1008.44 1008.71 1008.30 1007.33 1007.05 1006.72 1005.74 1004.57 1005.00 1005.10 1005.31 1005.53 1005.56 1005.71 1005.68 1005.13
1024.01 1023.42 1022.73 1022.04 1021.28 1020.41 1020.20 1020.26 1020.04 1019.68 1016.66 1016.56 1015.13 1014.01 1012.94 1012.96 1012.51 1010.54 1011.93 1012.06 1010.49 1009.26 1008.85 1008.38 1007.22 1006.91 1006.81 1007.80 1008.18 1008.21 1008.19 1007.70 1007.45 1007.19 1006.87 1005.69 1004.34 1004.91 1004.55 1004.16 1004.42 1004.88 1004.90 1005.21 1004.98
1023.70 1022.97 1022.31 1021.61 1020.81 1020.26 1020.45 1020.08 1019.52 1019.38 1018.13 1014.88 1013.08 1012.64 1011.79 1011.90 1011.39 1010.32 1011.17 1011.23 1010.25 1009.36 1008.43 1007.50 1005.78 1005.71 1006.60 1007.00 1007.47 1007.25 1007.39 1007.13 1007.22 1007.00 1006.59 1006.38 1004.82 1004.65 1004.36 1003.91 1003.84 1003.68 1003.60 1004.08 1004.44
1023.32 1022.63 1021.95 1021.20 1020.57 1020.39 1020.09 1019.46 1019.31 1019.44 1017.69 1014.25 1012.38 1010.90 1010.87 1010.66 1010.42 1009.66 1010.18 1010.47 1009.21 1008.31 1008.03 1006.85 1005.53 1005.91 1006.05 1005.94 1006.69 1006.20 1006.47 1006.73 1007.56 1007.73 1006.62 1006.45 1004.27 1003.92 1003.43 1003.54 1003.22 1002.47 1003.02 1003.16 1003.34
1022.94 1022.25 1021.62 1020.99 1020.93 1020.40 1019.69 1019.21 1019.19 1019.48 1017.83 1013.60 1011.37 1010.00 1010.03 1010.61 1009.99 1008.37 1008.31 1008.63 1008.59 1007.72 1007.77 1005.54 1004.98 1004.93 1005.21 1004.33 1004.97 1005.24 1005.84 1006.63 1007.30 1007.38 1007.30 1006.76 1005.64 1003.04 1003.29 1002.92 1001.97 1001.25 1001.82 1001.75 1001.61
1022.60 1021.77 1021.02 1020.46 1020.58 1019.80 1019.36 1019.03 1019.39 1019.96 1017.49 1013.80 1011.89 1010.86 1010.87 1010.44 1009.96 1008.72 1007.81 1007.48 1007.13 1006.62 1006.69 1005.36 1004.62 1005.11 1004.34 1004.56 1004.91 1004.64 1005.95 1006.50 1007.03 1007.15 1005.99 1005.24 1005.63 1001.60 1002.64 1001.20 1001.28 1000.85 1000.61 1000.55 1000.42
1022.09 1021.25 1020.47 1020.22 1019.97 1019.35 1019.30 1019.57 1020.24 1019.68 1016.82 1014.61 1013.09 1012.29 1011.74 1010.91 1009.96 1009.22 1008.19 1008.02 1007.59 1006.76 1006.13 1004.94 1004.40 1004.74 1004.79 1005.10 1004.75 1004.80 1005.52 1005.84 1006.24 1006.07 1004.62 1004.34 1004.78 1001.77 1000.92 1000.58 1000.71 1000.43 999.78 999.65 999.75
1021.65 1020.67 1019.77 1019.70 1019.25 1019.45 1019.72 1020.58 1020.67 1018.69 1017.51 1015.06 1014.02 1012.52 1012.66 1011.29 1010.29 1009.37 1008.78 1008.03 1007.25 1007.04 1006.03 1004.65 1003.20 1002.68 1002.94 1002.87 1003.78 1003.86 1003.87 1004.09 1005.10 1005.34 1005.01 1004.61 1003.50 1001.43 1000.88 1000.69 1000.36 1000.40 999.96 1000.02 999.75
1021.24 1020.45 1020.00 1019.36 1019.06 1019.39 1020.34 1020.73 1019.98 1018.67 1017.17 1015.84 1013.89 1012.72 1011.85 1011.37 1011.11 1010.09 1008.93 1007.99 1007.28 1007.18 1006.71 1005.28 1003.42 1001.59 1001.43 1001.71 1002.35 1003.28 1003.20 1003.58 1005.11 1005.20 1005.43 1004.62 1003.62 1002.17 1001.23 1001.22 1000.69 1000.24 1000.47 1000.01 999.86
1021.62 1021.11 1020.24 1019.15 1019.26 1019.82 1020.56 1020.49 1019.57 1017.96 1016.82 1015.94 1014.74 1013.44 1012.39 1011.76 1011.66 1010.81 1009.21 1007.59 1007.02 1006.72 1006.66 1005.65 1004.16 1001.85 1001.76 1002.21 1002.87 1002.62 1002.75 1003.96 1004.26 1004.82 1005.16 1004.93 1004.21 1003.53 1002.11 1002.29 1001.59 1001.17 1001.11 1000.78 1000.63
1022.02 1021.61 1019.68 1019.27 1019.48 1020.42 1020.84 1020.47 1018.97 1017.14 1016.31 1015.48 1013.57 1012.67 1012.18 1011.70 1011.47 1010.89 1009.14 1007.37 1006.52 1006.09 1005.84 1005.62 1004.46 1002.73 1002.25 1001.84 1001.64 1002.94 1003.08 1003.62 1004.45 1004.90 1005.49 1006.00 1004.48 1003.24 1002.61 1002.43 1003.07 1002.34 1001.99 1001.76 1001.76
1021.88 1021.67 1019.59 1019.42 1020.38 1021.29 1020.96 1019.67 1018.39 1016.55 1015.31 1014.40 1012.99 1012.10 1011.70 1011.49 1011.30 1010.63 1009.10 1007.62 1006.38 1005.92 1005.99 1005.73 1004.81 1003.44 1002.63 1002.24 1002.11 1001.94 1002.19 1002.73 1003.65 1004.32 1004.86 1004.73 1003.13 1002.68 1003.21 1003.60 1004.05 1003.80 1002.90 1002.78 1002.91
1021.48 1021.01 1019.49 1019.57 1020.73 1021.30 1020.40 1019.32 1018.28 1016.52 1015.09 1014.10 1012.98 1012.03 1011.70 1011.54 1011.42 1010.65 1009.10 1007.28 1006.64 1006.21 1005.75 1005.28 1004.70 1004.12 1003.12 1002.71 1002.75 1002.60 1002.55 1002.27 1002.64 1003.09 1003.74 1004.25 1003.42 1003.34 1003.94 1004.32 1004.24 1003.94 1003.63 1004.15 1004.35
1021.48 1021.14 1020.30 1019.99 1020.35 1020.81 1020.46 1019.06 1017.73 1016.11 1014.79 1013.92 1012.49 1011.87 1011.63 1011.77 1011.27 1010.63 1009.31 1007.73 1006.95 1006.41 1005.48 1005.33 1004.88 1004.89 1004.62 1004.16 1003.80 1003.33 1002.73 1002.68 1002.86 1003.10 1003.07 1003.59 1003.28 1004.04 1004.75 1005.29 1004.63 1004.49 1004.55 1004.84 1005.37
1021.15 1020.59 1020.11 1020.33 1020.23 1020.25 1020.03 1018.96 1017.60 1016.29 1014.79 1013.77 1012.53 1012.26 1012.19 1011.82 1011.64 1010.48 1009.25 1008.05 1007.10 1006.39 1005.96 1006.09 1005.49 1005.33 1004.91 1004.58 1004.25 1004.07 1003.78 1003.39 1003.25 1003.08 1003.26 1003.52 1004.15 1004.62 1004.89 1005.18 1005.44 1005.46 1005.10 1005.44 1005.94
1020.75 1020.26 1019.99 1019.70 1019.62 1019.53 1019.11 1018.32 1017.33 1015.90 1015.47 1013.66 1013.06 1012.25 1011.99 1011.94 1011.68 1010.51 1009.93 1009.17 1007.95 1006.92 1006.89 1006.59 1006.30 1006.07 1005.54 1005.23 1005.30 1005.22 1005.20 1004.84 1004.38 1004.11 1003.98 1004.24 1004.37 1004.77 1004.53 1004.76 1005.12 1005.46 1005.39 1005.75 1006.11
1019.70 1019.56 1019.41 1019.11 1019.24 1019.31 1018.46 1017.63 1016.79 1016.28 1014.36 1013.63 1012.75 1012.04 1011.17 1010.75 1010.43 1009.82 1009.21 1008.57 1008.07 1007.99 1008.06 1007.87 1007.30 1006.86 1006.16 1005.65 1005.72 1006.47 1007.18 1006.67 1006.06 1006.25 1006.02 1005.87 1006.37 1006.03 1005.34 1005.28 1005.27 1005.61 1005.89 1006.31 1006.45
Wind_Speed
22 22 23 23 23 23 23 23 23 23 23 23 24 24 24 25 25 10 14 12 11 13 3 0 2 3 2 3 5 4 3 8 10 10 11 3 3 3 2 4 2 1 7 4 16
22 23 23 23 23 23 23 23 23 24 24 24 23 24 26 26 20 18 18 16 19 18 10 7 7 6 3 5 5 6 7 13 8 10 7 5 5 4 2 4 2 1 2 5 20
21 22 23 23 23 23 24 25 25 26 25 25 25 25 24 22 15 8 4 14 15 16 11 7 4 6 7 5 7 8 16 18 6 7 6 3 4 6 3 4 8 10 7 12 13
21 21 23 23 24 25 25 26 26 27 27 26 25 24 23 11 10 3 9 4 2 5 9 4 5 5 7 12 7 7 13 18 9 8 3 5 3 3 7 9 6 10 17 15 18
20 21 23 25 25 26 27 27 28 29 29 28 25 23 18 7 17 16 23 14 2 4 8 9 9 7 12 7 11 14 2 8 17 10 6 4 7 8 7 11 8 5 9 18 18
21 22 23 23 24 26 28 29 30 31 33 32 26 22 7 22 7 13 15 13 11 7 10 9 8 11 6 14 15 4 17 18 10 11 7 9 14 8 8 13 6 10 14 15 17
22 23 22 23 24 26 27 28 30 31 30 30 25 11 16 33 7 17 18 8 9 10 12 9 13 4 1 6 9 8 14 16 18 9 8 7 16 20 13 11 9 11 11 14 18
24 23 24 25 26 27 29 30 31 30 29 30 27 10 15 4 6 12 14 15 13 9 8 5 6 6 5 5 5 4 4 18 13 7 7 11 22 10 15 12 16 12 11 13 18
23 23 24 25 26 28 30 31 31 28 27 20 6 7 13 6 5 9 7 10 13 13 5 5 4 6 3 8 5 8 11 9 10 7 8 16 16 16 12 10 14 14 14 13 13
23 24 24 25 26 29 30 32 23 21 8 8 2 2 6 6 4 7 7 12 12 15 15 13 7 9 8 12 22 18 4 6 7 10 16 18 22 7 8 16 19 13 10 10 13
23 25 25 26 27 30 25 6 8 7 8 11 18 22 33 29 19 21 14 24 11 13 23 23 19 21 28 27 24 21 13 19 13 13 5 17 23 17 14 9 8 9 12 11 13
23 25 25 26 28 30 6 4 6 11 19 12 24 28 30 22 28 33 16 15 13 17 18 22 27 28 28 22 21 19 22 22 7 8 14 18 23 7 11 16 17 14 12 11 8
24 25 26 26 29 9 2 13 9 7 10 14 17 11 7 5 12 15 3 11 22 25 25 24 28 26 23 21 21 23 22 22 15 3 13 3 18 13 6 7 8 12 17 10 11
25 26 27 29 11 3 12 7 8 2 7 11 4 6 4 8 6 6 8 2 7 24 22 19 21 18 24 28 23 24 21 23 14 8 16 8 18 15 14 16 17 18 10 10 11
26 25 27 24 12 2 10 9 4 2 7 8 6 2 5 1 18 13 8 4 14 21 10 8 5 28 20 26 27 21 20 18 14 17 15 10 10 11 8 16 21 18 15 17 18
25 26 28 11 3 10 8 4 3 3 10 7 7 10 12 17 16 12 8 6 5 13 18 25 17 4 9 13 18 19 6 16 16 12 18 23 17 19 13 19 12 19 18 20 21
26 28 23 7 5 4 4 3 3 4 8 8 14 21 17 23 21 6 5 4 2 6 10 17 23 21 12 9 10 14 14 10 13 15 14 13 14 22 10 18 20 20 21 18 19
27 28 11 5 6 0 1 5 1 7 8 18 16 22 15 21 6 6 6 4 3 6 5 7 10 16 16 23 14 12 16 10 13 4 6 5 10 14 15 22 17 13 13 7 9
23 5 5 4 2 3 4 2 7 5 9 11 22 12 5 2 4 6 3 4 4 1 4 5 8 1 8 10 14 7 14 10 3 3 3 5 6 9 6 11 13 15 8 18 17
5 4 5 3 3 4 2 6 5 8 18 15 20 8 5 4 3 3 3 3 3 4 4 2 11 3 1 7 5 8 5 2 4 12 14 5 3 7 9 11 13 12 10 9 6
3 5 4 3 4 2 3 8 8 16 17 7 15 16 10 7 5 4 6 8 1 4 3 4 7 4 8 8 14 7 7 3 3 6 4 3 8 11 16 5 7 10 8 7 4
1 4 3 2 3 2 2 6 18 17 18 14 10 14 10 5 3 3 4 4 9 5 3 7 6 4 3 4 1 5 8 11 6 5 3 5 8 1 0 4 3 11 8 2 4
3 4 3 3 3 4 6 8 7 7 12 7 7 4 3 4 3 4 5 5 6 9 4 5 3 4 4 2 4 2 4 5 3 3 8 5 8 5 4 5 5 5 3 3 4
3 4 4 1 3 3 3 9 11 6 12 9 15 8 3 4 3 5 5 5 9 11 14 7 4 2 3 4 2 3 2 2 10 5 5 8 12 6 6 4 7 4 3 5 5
3 4 4 3 4 4 6 4 15 9 4 8 5 9 21 4 5 5 4 9 5 4 5 4 5 2 5 6 3 3 3 3 8 9 6 5 5 5 4 4 6 5 2 5 6
3 3 1 3 3 3 6 4 12 14 5 11 9 20 10 6 8 17 6 7 6 5 8 5 5 3 5 2 1 1 5 6 4 4 6 6 10 8 3 1 4 7 6 8 8
1 2 4 3 1 2 4 7 12 16 11 12 18 16 11 8 6 9 14 14 14 9 5 4 2 4 5 4 3 5 5 5 3 7 5 6 6 12 8 5 2 4 4 6 8
Wind_Direction
13 9 6 4 0 357 353 349 345 342 340 338 337 336 333 327 324 300 256 231 210 250 256 277 176 212 160 238 206 147 138 215 227 193 227 226 348 299 283 144 34 32 152 203 154
10 5 360 356 353 349 346 344 340 337 335 334 333 331 331 330 313 276 246 238 255 250 244 217 206 181 217 210 207 175 185 216 210 216 236 169 198 273 241 189 188 15 2 126 152
6 360 356 353 348 345 343 340 336 333 332 330 329 330 329 336 307 248 117 205 246 241 212 197 229 181 205 195 205 203 226 224 234 205 211 220 305 180 193 251 214 197 164 148 158
0 357 354 350 346 344 341 337 333 329 326 324 323 324 325 325 273 263 140 81 25 93 161 197 186 201 206 218 213 247 223 230 240 235 219 241 211 231 187 230 266 195 165 159 172
355 354 352 345 343 341 338 335 331 327 323 318 317 320 328 274 247 277 287 282 112 145 190 200 207 190 224 209 220 248 271 240 242 240 221 242 227 224 226 253 242 115 163 177 182
349 352 345 341 340 339 335 332 328 325 319 311 311 311 307 264 260 256 268 267 243 216 215 195 214 221 276 225 239 239 223 249 267 254 237 243 262 170 234 241 217 162 190 191 192
350 346 339 337 338 335 331 327 322 320 312 304 304 297 266 247 292 306 308 306 264 218 222 209 217 227 211 260 269 235 261 263 242 245 233 203 251 237 229 230 209 198 203 204 207
344 341 339 338 337 333 328 324 324 316 304 301 296 267 257 264 274 276 272 274 266 254 225 220 194 214 181 279 312 260 231 239 242 189 223 177 246 229 223 225 235 219 222 208 212
341 337 336 333 333 330 326 323 320 313 312 312 291 166 263 302 247 247 258 259 271 258 247 236 180 196 173 209 290 217 249 229 251 208 203 200 255 230 237 228 237 236 233 221 221
338 335 332 330 327 327 323 323 308 312 334 351 253 245 260 256 283 309 290 300 289 250 252 230 225 219 201 197 222 224 211 239 191 200 200 228 243 244 233 230 234 229 231 222 211
335 334 330 327 332 325 325 341 348 329 13 275 257 264 273 277 284 276 278 279 261 258 226 221 223 221 219 212 223 229 228 241 241 239 230 231 250 235 235 248 233 240 233 226 222
335 331 329 328 327 322 351 353 278 285 301 250 254 251 255 278 290 283 281 278 262 253 252 214 219 221 225 220 224 222 231 246 270 226 228 249 256 210 216 235 228 227 235 231 225
331 329 326 326 323 330 325 297 315 341 281 287 255 247 234 194 236 286 244 269 243 250 247 251 225 220 211 213 214 222 221 231 222 190 248 286 271 238 229 249 255 240 242 233 215
331 329 327 327 324 304 297 284 332 30 274 280 256 252 177 225 255 215 166 124 243 232 246 242 249 227 216 216 209 224 215 229 226 218 242 159 263 247 238 237 242 236 221 223 210
331 328 325 325 298 266 290 309 330 354 297 269 278 182 331 33 313 304 203 196 272 238 211 237 212 198 207 213 204 226 219 225 224 230 242 221 250 247 205 234 237 238 222 220 222
330 326 322 318 263 259 295 292 67 49 254 281 309 310 323 316 311 304 289 184 235 236 234 253 252 282 238 247 205 221 152 218 225 224 228 224 215 254 221 227 239 249 241 227 227
332 324 318 304 256 321 335 6 343 178 324 281 317 315 319 300 311 274 298 281 246 306 221 251 248 243 220 255 243 211 180 212 215 218 238 211 202 238 203 230 230 236 245 237 233
331 320 296 269 274 164 63 43 207 248 248 293 301 297 283 295 240 277 284 279 306 264 275 209 302 167 191 209 207 210 197 194 217 204 229 149 218 242 222 245 250 244 248 258 247
332 295 294 266 3 93 68 46 224 275 311 297 308 289 302 214 294 325 256 245 176 211 274 295 253 210 174 172 174 183 207 220 83 347 114 184 276 305 213 235 253 246 249 248 239
321 327 279 283 131 69 216 252 229 264 295 294 292 244 272 247 337 320 288 234 229 134 269 323 299 229 176 105 262 217 158 225 243 221 232 235 245 227 269 225 251 278 251 258 252
44 333 265 4 69 54 220 230 268 289 300 280 279 278 261 300 224 240 257 285 239 304 329 336 245 312 159 185 175 175 204 198 162 157 175 199 246 205 235 230 257 272 292 256 160
250 291 274 57 31 304 226 214 300 293 301 285 266 266 259 264 263 270 271 252 337 325 314 210 271 297 288 288 30 199 199 181 181 221 214 169 266 297 325 228 249 281 283 175 115
245 248 299 94 258 280 292 280 270 296 310 299 280 289 255 290 298 243 274 290 333 343 302 333 325 301 308 324 31 231 207 200 86 81 202 151 265 344 341 312 264 277 10 76 111
289 296 305 285 166 226 291 297 310 280 286 288 293 281 298 307 291 282 280 297 332 299 317 276 233 306 309 295 192 303 305 242 215 232 208 220 269 279 308 307 313 310 156 136 108
204 238 209 278 285 233 297 264 298 315 255 292 306 334 322 295 301 289 290 313 298 308 356 46 316 247 281 256 243 229 249 268 246 257 248 250 221 276 289 309 286 271 138 117 146
260 264 250 281 261 252 282 274 294 318 284 308 314 313 305 289 254 295 296 300 267 334 6 338 289 341 287 42 157 248 347 313 300 318 269 242 276 337 353 281 192 225 174 173 171
242 265 240 242 262 72 243 284 298 307 293 288 303 309 304 258 243 252 267 262 259 288 288 259 254 342 279 332 351 39 328 340 21 30 322 15 347 328 332 290 271 247 226 224 200